Regional Weather Roundup
Issued by NWS Sterling, VA

Home | Current Version | Previous Version | Graphics & Text | Print | Product List | Glossary On
Versions: 1 2 3 4 5 6 7 8 9 10 11 12 13 14 15 16 17 18 19 20 21 22 23 24 25 26 27
000
ASUS41 KLWX 031810
RWRLWX

REGIONAL WEATHER ROUNDUP
NATIONAL WEATHER SERVICE BALTIMORE MD/WASHINGTON DC
100 PM EST SAT DEC 03 2016

Note: "FAIR" indicates few or no clouds below 12,000 feet
with no significant weather and/or obstructions to visibility.
 TC=TEMPERATURE CELSIUS

 * =Non NWS site. Station does not report precipitation (e.g. rain,
    snow, etc.), thunder, or fog.

DCZ001-MDZ009-015-VAZ040>042-051-053>054-031900-
WASHINGTON METRO

CITY           SKY/WX    TMP DP  RH WIND       PRES   REMARKS
WASHINGTON NAT PTSUNNY   50  30  46 NW16G25   30.20F
DULLES         MOSUNNY   47  28  47 NW20G29   30.20F
ANDREWS AFB    MOSUNNY   49  29  45 NW18G26   30.17F
FT BELVOIR     SUNNY     49  28  43 NW18      30.19F
QUANTICO       SUNNY     50  27  40 N10G17    30.22F
COLLEGE PARK*  MOSUNNY   46  28  49 NW9G21    30.19F
LEESBURG*      CLOUDY    46  32  57 N16G22    30.22F
MANASSAS*      MOSUNNY   48  28  46 N10G17    30.22F
GAITHERSBURG*  PTSUNNY   46  28  49 NW15G24   30.22F

$$

MDZ006>007-011-014-031900-
BALTIMORE METRO

CITY           SKY/WX    TMP DP  RH WIND       PRES   REMARKS
BWI AIRPORT    MOSUNNY   50  29  44 NW21G28   30.16F
MD SCIENCE CTR   N/A     49  27  42 MISG      30.18F
MARTIN STATE   PTSUNNY   52  34  50 W20G25    30.17F
ANNAPOLIS      SUNNY     51  30  44 NW18G24   30.16F
FORT MEADE*    MOSUNNY   50  30  46 NW18G25   30.21S

$$

MDZ012-015-019>023-031900-
MARYLAND EASTERN SHORE

CITY           SKY/WX    TMP DP  RH WIND       PRES   REMARKS
OCEAN CITY     MOSUNNY   52  30  43 N14G30    30.13S
SALISBURY      MOSUNNY   50  29  44 NW20G26   30.14F
BAY BRIDGE AP* MOSUNNY   50  32  50 NW20      30.17F
CAMBRIDGE*     MOSUNNY   50  32  50 NW12G23   30.16F
EASTON*        SUNNY     54  30  40 NW23G30   30.18F

$$

MDZ017>025-031900-
SOUTHERN MARYLAND

CITY           SKY/WX    TMP DP  RH WIND       PRES   REMARKS
PATUXENT RIVER MOSUNNY   50  29  44 NW16G24   30.18F
ST INIGOES     SUNNY     51  30  44 NW9G22    30.17F
LEONARDTOWN*   SUNNY     50  30  46 NW9G22    30.19F

$$

MDZ003>005-031900-
NORTH CENTRAL MARYLAND

CITY           SKY/WX    TMP DP  RH WIND       PRES   REMARKS
FREDERICK*     PTSUNNY   46  32  57 NW9G17    30.23F
HAGERSTOWN APT CLOUDY    44  28  53 NW18      30.19F
WESTMINSTER*   PTSUNNY   45  28  53 NW18G25   30.16F

$$

MDZ501>502-031900-
WESTERN MARYLAND

CITY           SKY/WX    TMP DP  RH WIND       PRES   REMARKS
OAKLAND*         N/A     27  27 100 W7        30.17F
CUMBERLAND*    NOT AVBL

$$

VAZ025>031-031900-
SHENANDOAH VALLEY

CITY           SKY/WX    TMP DP  RH WIND       PRES   REMARKS
WINCHESTER*    CLOUDY    43  28  56 NW10G16   30.22F
FRONT ROYAL*   FAIR      46  30  53 NW6       30.19F
LURAY*         FAIR      48  32  53 W8        30.18F
NEW MARKET*    FAIR      46  27  46 CALM      30.19F
STAUNTON*      MOSUNNY   44  28  53 W7        30.21F
WAYNESBORO*    FAIR      43  26  52 W5        30.19F

$$

WVZ021-048>050-054>055-031900-
EASTERN WEST VIRGINIA PANHANDLE

CITY           SKY/WX    TMP DP  RH WIND       PRES   REMARKS
MARTINSBURG    CLOUDY    45  28  51 NW14      30.21F
PETERSBURG*    MOSUNNY   44  30  56 NW13      30.24F

$$

VAZ036>039-050-031900-
CENTRAL FOOTHILLS

CITY           SKY/WX    TMP DP  RH WIND       PRES   REMARKS
CHARLOTTESVILL MOSUNNY   49  27  42 NW3       30.19F
CULPEPER*      SUNNY     51  32  47 CALM      30.20F
ORANGE*          N/A     50  30  46 CALM      30.21F
GORDONSVILLE*  FAIR      49  29  47 NW5       30.19F
WARRENTON*     FAIR      51  22  31 N13G20    30.20F

$$

VAZ055>057-031900-
NORTH AND CENTRAL PIEDMONT

CITY           SKY/WX    TMP DP  RH WIND       PRES   REMARKS
FREDERICKSBRG* MOSUNNY   50  31  48 N7        30.19F
STAFFORD*      SUNNY     49  30  48 NW17      30.24F

$$

NCZ024-NYZ072-PAZ021-071-VAZ022-071-031900-
OTHER REGIONAL OBSERVATIONS

CITY           SKY/WX    TMP DP  RH WIND       PRES   REMARKS
NEW YORK CITY  PTSUNNY   47  25  42 NW14G23   30.05S
PHILADELPHIA   PTSUNNY   50  27  40 NW14G25   30.11F
PITTSBURGH     CLOUDY    38  30  73 W10       30.24F
ROANOKE        CLOUDY    43  26  51 NW5       30.24F
RALEIGH        MOSUNNY   51  26  37 VRB7      30.24F

$$

ANZ530>537-031900-
MARINE OBSERVATIONS

STATION/POSITION TIME  TEMP    WIND        PRES
                       AIR SEA DIR/SP/G
                 (UTC) (F)     (DEG/KT/KT) (MB)
THOMAS PT LIGHT  1800   48 49  310/ 20/ 23   N/A
BALT KEY BRIDGE  1748   48     310/ 19/ 22 1021.1F
COVE POINT       1748   48     350/ 20/ 28 1022.4F
LEWISETTA        1748   48 50  330/ 14/ 19 1022.0F
SOLOMONS ISLAND  1748   49 52  310/ 12/ 18   N/A
PINEY POINT      1736          340/ 20/ 21   N/A

$$





USA.gov is the U.S. government's official web portal to all federal, state and local government web resources and services.